This is the latest recevied weather packets stored in our database for station/object DH1NAI-6. If no packets are shown the sender has not sent any weather packets the latest 10 day(s).
| Time | Temp. | Humidity | Pressure | Rain* | Wind** | Luminosity | Snow |
|---|---|---|---|---|---|---|---|
| 1787550512 | 7.78° C | 99% | 1020.4 hPa | 0 mm | - | 9 W/m² | - |
| 1787549912 | 6.67° C | 99% | 1020.3 hPa | 0 mm | - | 9 W/m² | - |
| 1787549303 | 6.11° C | 99% | 1020.4 hPa | 0 mm | - | 8 W/m² | - |
| 1787548696 | 3.89° C | 99% | 1020.3 hPa | 0 mm | - | 7 W/m² | - |
| 1787548087 | 3.33° C | 99% | 1020.3 hPa | 0 mm | - | 6 W/m² | - |
| 1787547479 | 2.78° C | 99% | 1020.2 hPa | 0 mm | - | 5 W/m² | - |
| 1787546855 | 2.78° C | 99% | 1020.2 hPa | 0 mm | - | 4 W/m² | - |
| 1787546247 | 2.22° C | 99% | 1020.2 hPa | 0 mm | - | 3 W/m² | - |
| 1787545640 | 1.67° C | 99% | 1020.2 hPa | 0 mm | - | 1 W/m² | - |
| 1787545031 | 2.22° C | 99% | 1020.2 hPa | 0 mm | - | 0 W/m² | - |
| 1787544423 | 1.67° C | 99% | 1020.1 hPa | 0 mm | - | 0 W/m² | - |
| 1787543815 | 2.22° C | 99% | 1020.1 hPa | 0 mm | - | 0 W/m² | - |
| 1787543208 | 2.22° C | 99% | 1020.5 hPa | 0 mm | - | 0 W/m² | - |
| 1787542592 | 2.22° C | 99% | 1020.6 hPa | 0 mm | - | 0 W/m² | - |
| 1787541992 | 2.22° C | 99% | 1020.5 hPa | 0 mm | - | 0 W/m² | - |
| 1787541383 | 2.22° C | 99% | 1020.5 hPa | 0 mm | - | 0 W/m² | - |
| 1787540759 | 2.22° C | 99% | 1020.1 hPa | 0 mm | - | 0 W/m² | - |
| 1787540135 | 2.22° C | 99% | 1020.2 hPa | 0 mm | - | 0 W/m² | - |
| 1787539527 | 2.78° C | 99% | 1020.1 hPa | 0 mm | - | 0 W/m² | - |
| 1787538919 | 2.22° C | 99% | 1020.2 hPa | 0 mm | - | 0 W/m² | - |
| 1787538311 | 2.78° C | 99% | 1020.4 hPa | 0 mm | - | 0 W/m² | - |
| 1787537704 | 2.22° C | 99% | 1020.4 hPa | 0 mm | - | 0 W/m² | - |
| 1787537095 | 2.78° C | 99% | 1020.3 hPa | 0 mm | - | 0 W/m² | - |
| 1787536488 | 2.22° C | 99% | 1020.3 hPa | 0 mm | - | 0 W/m² | - |
| 1787535872 | 2.22° C | 99% | 1020.3 hPa | 0 mm | - | 0 W/m² | - |
* Rain latest hour (hover to see other rain measurements)
** Current wind speed in m/s (hover to see current wind gust speed)